Weather Roundup
Issued by NWS Springfield, MO

Home | Current Version | Previous Version | Text Only | Print | Product List | Glossary On
Versions: 1 2 3 4 5 6 7 8 9 10 11 12 13 14 15 16 17 18 19 20 21 22 23 24 25 26 27 28 29 30 31 32 33 34 35 36 37 38 39 40 41 42 43 44 45 46 47 48 49 50
684
NZUS99 KSGF 100907
HRRSGF

HOURLY WEATHER
NATIONAL WEATHER SERVICE SPRINGFIELD MO
300 AM CST WED FEB 10 2016

......SGF CWA......

CITY           SKY/WX    TMP DP  RH WIND       PRES   REMARKS
SPRINGFIELD    CLEAR     19   8  62 NW8       30.19F WCI   9
JOPLIN         CLEAR     20   9  62 CALM      30.26F
WEST PLAINS    CLEAR     19   4  51 NW7       30.17R WCI  10
ROLLA          CLEAR     16   6  65 W9        30.14F WCI   4
OSAGE BEACH    CLEAR     19   7  58 NW7       30.20F WCI  10

......SURROUNDING SGF CWA......

CITY           SKY/WX    TMP DP  RH WIND       PRES   REMARKS
CHANUTE        PTCLDY    19  11  70 CALM      30.25F
PARSONS        CLEAR     17  12  80 CALM      30.27F
COFFEYVILLE    CLEAR     19  12  74 S3        30.28F
EMPORIA        CLOUDY    21  14  74 SW6       30.22S WCI  13
GROVE OK       CLEAR     23  14  68 CALM      30.30S
ROGERS AR      CLEAR     21   8  57 W5        30.25R WCI  15
SILOAM SPRINGS CLEAR     21   1  42 W3        30.27R
HARRISON AR    CLEAR     21   7  54 NW10      30.20S WCI  10
NEAR YELLVILLE CLEAR     25   3  39 NW8       30.20S WCI  16

......KANSAS AND MISSOURI......

CITY           SKY/WX    TMP DP  RH WIND       PRES   REMARKS
KANSAS CTY INT CLOUDY    21  13  71 SW6       30.20F WCI  13
DOWNTOWN KC    CLOUDY    23  12  62 SW3       30.22F
COLUMBIA       CLEAR     17   9  70 NW9       30.17F WCI   6
SEDALIA        CLEAR     18   9  68 W6        30.21F WCI  10
ST JOSEPH      CLOUDY    20  14  77 S6        30.21F WCI  12
ST LOUIS       CLOUDY    18   5  57 NW15G22   30.15S WCI   4
SPIRIT OF STL  MOCLDY    17   6  62 W9        30.17S WCI   6
KIRKSVILLE     CLEAR     11   5  77 W5        30.16S WCI   3
WICHITA        CLOUDY    29  15  56 S10       30.22F WCI  20
TOPEKA         CLOUDY    23  13  65 CALM      30.22F
OLATHE         CLOUDY    21  11  65 W3        30.21F

......TENNESSEE......

CITY           SKY/WX    TMP DP  RH WIND       PRES   REMARKS
MEMPHIS        CLEAR     27  12  53 NW12      30.20R WCI  17
NASHVILLE      CLOUDY    22  15  75 W7        30.10R WCI  13

......ARKANSAS.......

CITY           SKY/WX    TMP DP  RH WIND       PRES   REMARKS
FAYETTEVILLE   CLEAR     18  10  71 CALM      30.26R
FT SMITH       CLEAR     25   6  44 W7        30.32R WCI  17
LITTLE ROCK    CLEAR     29   8  41 N8        30.27R WCI  21

......OKLAHOMA.......

CITY           SKY/WX    TMP DP  RH WIND       PRES   REMARKS
TULSA          CLEAR     26  12  55 S3        30.30F
PONCA CITY     CLOUDY    29  15  56 S5        30.27F WCI  24
MCALESTER      CLEAR     31  14  49 NE5       30.32R WCI  26
OKLAHOMA CITY  CLEAR     24  19  81 CALM      30.29S

......IOWA............

CITY           SKY/WX    TMP DP  RH WIND       PRES   REMARKS
DES MOINES     CLOUDY    17   7  64 N8        30.15F WCI   7
QUAD CITIES    CLEAR      9   0  67 NW8       30.10R WCI  -3

......ILLINOIS........

CITY           SKY/WX    TMP DP  RH WIND       PRES   REMARKS
QUINCY         CLEAR     11   3  70 NW10      30.14S WCI  -3
CHICAGO        PTCLDY    12   2  64 NW14      29.95S WCI  -3




USA.gov is the U.S. government's official web portal to all federal, state and local government web resources and services.